Regional Weather Roundup
Issued by NWS Green Bay, WI

Home | Current Version | Previous Version | Text Only | Print | Product List | Glossary On
Versions: 1 2 3 4 5 6 7 8 9 10 11 12 13 14 15 16 17 18 19 20 21 22 23 24 25 26 27 28 29 30 31 32 33 34 35 36 37 38 39 40 41 42 43 44 45 46 47 48 49 50
000
ASUS43 KGRB 221211
RWRGRB

NORTH-CENTRAL AND NORTHEAST WISCONSIN REGIONAL WEATHER ROUNDUP
NATIONAL WEATHER SERVICE GREEN BAY WI
700 AM CDT FRI JUL 22 2016

WIZ005-009-010>012-018-019-221300-
NORTH CENTRAL WISCONSIN

CITY           SKY/WX    TMP DP  RH WIND       PRES   REMARKS
IRONWOOD       SUNNY     63  61  94 W3        29.97F
MANITOWISH WTR SUNNY     62  62 100 CALM      30.02S
ARBOR VITAE    SUNNY     64  62  93 CALM      30.02S
EAGLE RIVER    SUNNY     64  64  97 CALM      30.02R
LAND O LAKES   SUNNY     62  62 100 CALM      30.03R
RHINELANDER    MOSUNNY   68  63  84 CALM      30.03S
PHILLIPS       CLOUDY    64  63  97 CALM      30.02R
ANTIGO         FOG       66  66 100 CALM      30.02S VSB<1/4
TOMAHAWK       MOSUNNY   65  64  97 CALM      30.03R
MERRILL        FOG       68  68 100 CALM      30.03R VSB<1/4
$$

WIZ013-073-221300-
NORTHEAST WISCONSIN

CITY           SKY/WX    TMP DP  RH WIND       PRES   REMARKS
IRON MOUNTAIN  SUNNY     70  63  78 VRB3      29.98R
MARINETTE      SUNNY     73  70  90 NW6       29.96R
OCONTO         SUNNY    N/A N/A N/A CALM      29.96R
$$

WIZ017-030-035>037-045-221300-
CENTRAL WISCONSIN

CITY           SKY/WX    TMP DP  RH WIND       PRES   REMARKS
MEDFORD        FOG       66  66 100 CALM      30.03R VSB<1/4
WAUSAU         SUNNY     69  67  93 NW6       30.00R
MOSINEE        SUNNY     68  68 100 N7        30.02R
MARSHFIELD     SUNNY     70  67  90 NW3       30.01R
WISC RAPIDS    SUNNY     69  66  90 SW5       30.03R
STEVENS POINT  SUNNY     68  67  99 CALM      30.02R
WAUPACA        SUNNY     69  69  99 CALM      29.99R
SHAWANO        SUNNY     70  68  94 S3        29.98R
CLINTONVILLE   SUNNY     68  64  88 S5        29.98R
WAUTOMA        MOSUNNY   68  67  96 W3        30.01R
$$

WIZ038-039-048-051-221300-
FOX VALLEY

CITY           SKY/WX    TMP DP  RH WIND       PRES   REMARKS
NWS GREEN BAY  CLOUDY    69  69 100 SW5       29.97R
APPLETON       PTSUNNY   70  68  94 W6        29.98R
OSHKOSH        MOSUNNY   69  66  90 W5        29.98S
FOND DU LAC    CLOUDY    69  66  90 S3        29.99R
$$

WIZ022-050-052-221300-
EAST CENTRAL WISCONSIN

CITY           SKY/WX    TMP DP  RH WIND       PRES   REMARKS
EPHRAIM        FAIR      72  70  95 W5        29.95R
WASHINGTON ISL NOT AVBL
STURGEON BAY   MOSUNNY   71  69  93 W7        29.97R
MANITOWOC      CLOUDY    72  67  84 MISG      29.97R
SHEBOYGAN      MOSUNNY   70  65  84 W8        29.97R
$$

LMZ563-521-522-541>543-221300-
LAKESHORE

STATION/POSITION TIME  TEMP    WIND        PRES    VSBY  WAVE
                       AIR SEA DIR/SP/G                  HT/PER
                 (UTC) (F)     (DEG/KT/KT) (MB)    (MI)  (FT/S)
SHEBOYGAN LKSHOR 1200   69     230/  3/  4 1015.0R
KEWAUNEE LKSHORE 1100   70     290/  6/  7 1013.4S
ALGOMA MARINA    1128          300/  7/  9   N/A
NORTHPORT PIER   1100   72     250/  4/  8 1013.5S
N MID LAKE BUOY  1150   70 67  280/ 12/ 12 1012.7F         2/ 5
S GREEN BAY BUOY 1100   71 70  200/  6/  8   N/A
SISTER BAY LKSHO 1106   73      10/  5/  6   N/A
CHAMBERS ISLAND  1100   71     250/  6/  9 1013.9S
MENOMINEE LKSHOR 1100   73     300/  6/  8 1012.6F
$$




USA.gov is the U.S. government's official web portal to all federal, state and local government web resources and services.